Lid_Strength_Index
5 4 4 5 5 6 8 10 9 6 9 11 13 12 9 8 9 9 9 9 10 11 10 11 11 12 9 7 10 11 12 14 14 12 10 10 12 14 15 16 17 18 16 14
5 4 4 5 5 6 7 11 10 5 8 12 13 11 10 8 9 10 10 10 9 9 11 12 10 9 7 7 8 11 10 14 16 14 12 11 11 11 14 16 16 16 16 14
4 4 4 5 5 5 8 9 9 9 10 11 12 11 10 10 7 8 8 10 10 11 12 10 11 10 7 7 7 5 8 14 14 15 14 12 12 10 11 14 15 15 15 13
4 4 4 4 5 5 7 8 10 10 11 10 11 11 10 10 9 8 9 10 10 12 13 12 12 11 10 8 7 8 11 13 12 12 11 10 11 10 11 13 13 14 13 12
5 5 5 5 5 5 6 9 11 10 11 10 11 11 11 9 10 10 10 10 10 11 12 12 12 12 13 12 11 12 11 12 11 13 11 10 11 11 11 11 11 12 11 12
4 4 4 5 5 7 8 7 7 9 11 11 12 11 10 9 9 9 8 9 10 11 11 10 11 10 11 12 13 13 12 13 13 15 13 11 13 12 11 11 10 12 13 12
4 4 4 4 5 6 9 9 8 10 11 10 10 9 9 10 10 11 9 9 11 9 9 11 12 13 13 13 13 13 13 14 15 15 15 17 13 8 9 10 10 9 9 9
4 4 3 3 4 5 9 10 8 9 11 9 10 9 10 10 10 10 10 9 9 10 12 15 16 15 16 14 12 13 13 14 16 16 17 15 11 9 10 11 12 10 10 9
5 4 4 4 4 4 8 9 8 9 10 10 7 9 10 12 12 10 9 7 9 10 13 14 18 17 15 15 13 15 14 14 13 17 17 17 14 8 7 8 14 10 9 9
5 4 4 4 4 5 6 8 7 8 10 8 9 10 10 8 10 10 9 8 9 9 12 13 15 15 13 14 15 14 15 15 16 16 17 14 9 7 7 14 13 9 10 10
4 4 4 3 4 4 6 9 7 7 10 8 6 6 9 8 9 11 9 9 8 10 12 13 13 13 12 12 12 13 14 15 15 15 16 17 8 8 12 10 8 8 8 9
4 4 4 3 3 3 4 9 7 7 8 8 6 5 5 6 6 9 10 9 9 9 11 11 12 12 13 13 14 11 13 12 13 13 13 9 8 8 8 8 8 8 8 8
4 4 4 3 3 3 4 8 8 7 7 8 8 7 6 7 7 7 9 8 7 8 7 10 12 13 13 14 13 12 11 11 11 11 10 9 9 8 7 7 8 7 7 7
4 4 4 4 4 4 4 8 8 7 7 9 7 4 7 6 6 6 6 6 8 8 9 11 12 13 11 13 12 12 11 10 11 11 10 9 8 8 7 7 6 6 6 6
4 4 4 4 4 4 5 7 7 6 7 9 9 6 5 6 6 7 7 7 8 9 9 11 11 11 11 11 11 11 10 11 12 12 9 10 9 8 6 7 6 6 6 6
4 4 4 4 4 4 7 6 5 5 6 8 10 7 6 5 6 6 7 7 8 8 9 9 9 8 10 12 13 9 8 8 7 8 7 7 6 6 5 6 6 5 5 5
4 4 4 4 4 5 7 6 4 4 6 7 9 10 6 5 6 6 7 6 8 8 9 9 10 9 9 12 12 8 7 7 6 6 6 8 7 7 5 5 4 4 4 4
4 4 4 4 4 4 6 4 3 5 6 7 10 10 9 6 8 8 7 8 8 8 9 9 10 9 11 12 10 8 7 6 6 6 6 6 6 5 5 5 5 5 6 5
4 4 3 5 5 6 4 1 2 5 6 9 10 11 12 7 8 8 8 8 10 8 9 10 8 11 11 10 8 7 6 7 7 6 5 5 6 6 6 5 5 6 6 5
3 4 5 6 4 1 2 5 7 7 8 9 10 9 10 8 9 9 9 9 10 11 9 8 10 10 9 8 6 5 6 7 6 7 8 7 7 6 6 5 5 5 5 4
6 8 8 6 3 5 6 8 9 8 10 9 8 8 9 7 9 9 8 9 9 12 11 10 11 11 9 6 7 7 6 6 7 6 6 6 6 5 5 5 5 5 4 5
5 6 6 7 7 7 9 10 8 9 11 8 9 8 7 7 6 8 8 10 10 13 8 11 13 10 8 7 7 7 7 6 5 5 5 5 5 5 5 5 5 4 4 5
6 6 7 7 8 12 12 12 11 11 8 7 7 9 7 6 6 8 9 11 12 8 11 12 11 8 7 6 6 5 5 5 5 5 5 4 5 5 5 5 4 4 5 4
8 7 13 10 12 10 9 9 9 7 7 7 7 8 8 7 9 9 11 10 9 13 14 13 10 8 8 7 5 5 5 5 5 5 5 5 5 4 4 4 5 5 5 4
8 8 12 10 8 7 6 6 6 6 5 7 8 8 8 9 10 10 10 12 14 13 13 10 9 8 8 8 7 7 6 5 5 5 5 5 5 5 6 5 4 5 4 5
7 8 10 8 8 8 7 6 7 5 6 5 7 9 11 11 10 12 12 13 14 12 9 8 8 8 8 7 7 6 5 6 6 5 5 5 5 5 5 5 4 5 3 5
7 8 7 8 7 7 6 6 6 4 6 9 9 11 12 9 12 13 11 12 10 9 8 8 8 8 7 6 6 5 5 5 5 6 6 5 5 5 5 5 5 4 2 4